This demonstration page uses our WeatherBlox Daily Observations layout. Learn more.

Left ArrowRight Arrow

41.86663, -103.66717

Hourly Observations for July 8, 2017

Temp ( °F °C ) Dew Point ( °F °C ) Humidity (%) Winds ( mph kmh ) Pressure ( in mb ) Visibility ( mi km ) Precip ( " mm )
12:53 am 00:53 Mostly Clear 66 18.9 55 12.8 68 68 ESE 3 6 30.05 1018 10 16 0.00 0.00
1:53 am 01:53 Clear 65 18.3 56 13.3 73 73 ESE 15 24 30.06 1018 10 16 0.00 0.00
2:53 am 02:53 Clear 63 17.2 57 13.9 81 81 ESE 8 13 30.05 1018 10 16 0.00 0.00
3:53 am 03:53 Clear 61 16.1 57 13.9 87 87 ESE 6 9 30.05 1018 10 16 0.00 0.00
4:53 am 04:53 Clear 62 16.7 56 13.3 80 80 ESE 3 6 30.05 1018 10 16 0.00 0.00
5:53 am 05:53 Sunny 62 16.7 57 13.9 84 84 ENE 6 9 30.07 1018 10 16 0.00 0.00
6:53 am 06:53 Sunny 68 20 57 13.9 68 68 Calm 30.06 1018 10 16 0.00 0.00
7:53 am 07:53 Sunny 72 22.2 57 13.9 59 59 NNW 6 9 30.07 1018 10 16 0.00 0.00
8:53 am 08:53 Sunny 75 23.9 57 13.9 54 54 WNW 6 9 30.07 1018 10 16 0.00 0.00
9:53 am 09:53 Sunny 80 26.7 56 13.3 44 44 WNW 9 15 30.06 1018 10 16 0.00 0.00
10:53 am 10:53 Sunny 85 29.4 54 12.2 35 35 W 7 11 30.06 1018 10 16 0.00 0.00
11:53 am 11:53 Sunny 88 31.1 52 11.1 29 29 SW 6 9 30.05 1018 10 16 0.00 0.00
12:53 pm 12:53 Sunny 93 33.9 45 7.2 19 19 VRB 5 7 30.03 1017 10 16 0.00 0.00
1:53 pm 13:53 Mostly Sunny 94 34.4 45 7.2 18 18 S 9 15 30.01 1016 10 16 0.00 0.00
2:53 pm 14:53 Mostly Sunny 94 34.4 41 5 16 16 VRB 5 7 30.00 1016 10 16 0.00 0.00
3:53 pm 15:53 Mostly Sunny 92 33.3 40 4.4 16 16 SSE 7 11 30.00 1016 10 16 0.00 0.00
4:53 pm 16:53 Sunny 94 34.4 40 4.4 15 15 ESE 9 15 29.98 1015 10 16 0.00 0.00
5:53 pm 17:53 Sunny 92 33.3 41 5 17 17 E 10 17 29.98 1015 10 16 0.00 0.00
6:53 pm 18:53 Sunny 89 31.7 47 8.3 23 23 ENE 8 13 29.96 1015 10 16 0.00 0.00
7:53 pm 19:53 Sunny 84 28.9 48 8.9 29 29 E 10 17 29.97 1015 10 16 0.00 0.00
8:53 pm 20:53 Clear 74 23.3 52 11.1 46 46 ENE 8 13 30.00 1016 10 16 0.00 0.00
9:53 pm 21:53 Clear 71 21.7 52 11.1 51 51 E 6 9 30.01 1016 10 16 0.00 0.00
10:53 pm 22:53 Clear 68 20 52 11.1 57 57 E 6 9 30.01 1016 10 16 0.00 0.00
11:53 pm 23:53 Clear 65 18.3 54 12.2 68 68 E 7 11 30.01 1016 10 16 0.00 0.00

Powered by AerisWeather